Delta Virtual Airport Information Service

Santa Ana John Wayne Airport

ICAO: KSNA Country: United States
Latitude: 33.6757 Longitude: -117.868
Latest Arrival : DAL1179 (A) (KATL-KSNA) Latest Departure : DAC411 (KSNA-PHNL)


WX CaptureLIVE
Data provided by noaa.gov | Fetched at 17:58:13

METAR : KSNA 172053Z 22008KT 10SM FEW045 28/17 A2988 RMK AO2 SLP115 T02830167 58007

TAF : KSNA 172053Z 22008KT 10SM FEW045 28/17 A2988 RMK AO2 SLP115 T02830167 58007


Runway Data for KSNA
Data provided by openaviationdata.com

Runway ID Mag Var Hdg Length Elevation Surface ILS Freq ILS Id ILS Slope
01L 13 14° 5708 ft 56 ft Asphalt -- -- --
01R 13 14° 2889 ft 56 ft Asphalt -- -- --
19L 13 194° 2889 ft 56 ft Asphalt -- -- --
19R 13 194° 5708 ft 56 ft Asphalt 111.75 ISNA 3

Santa Ana John Wayne Airport, United States
Use only for reference purposes



Not for navigational purposes.